Home > Weather > Bruck an der Mur > Past weeks

Flag for Austria Weather for the Past 2 Weeks in Bruck an der Mur, Styria, Austria

Now
48 °F

Passing clouds.


Feels Like: 44 °F
Forecast: 26 / 42 °F
Wind: 9 mph from South

Location: Graz-Thalerhof-Flughafen

Current Time: Feb 10, 2016 at 2:15:18 AM

Latest Report: Feb 10, 2016 at 1:20 AM


Visibility: N/A

Pressure: 29.33 "Hg

Humidity: 76%

Dew point: 41 °F

Location of Bruck an der MurLocation

Historic Weather in Bruck an der Mur — Graph

°F

Bruck an der Mur Temperature Yesterday

Maximum temperature yesterday: 59 °F (at 1:50 PM)
Minimum temperature yesterday: 32 °F (at 5:50 AM)
Average temperature yesterday: 46 °F

High & Low Weather Summary for the Past Weeks

 TemperatureHumidityPressure
High61 °F (Jan 28, 2:20 PM)100% (Jan 26, 7:50 AM)30.42 "Hg (Jan 26, 7:50 AM)
Low23 °F (Jan 27, 4:50 AM)31% (Feb 4, 1:20 PM)29.36 "Hg (Feb 10, 12:20 AM)
Average40 °F80%30.10 "Hg
* Reported Jan 26 12:50 AM — Feb 10 12:20 AM, Bruck an der Mur, Weather by CustomWeather, © 2016

Note: Actual official high and low records may vary slightly from our data, if they occured in-between our weather recording intervals... More about our weather records

Advertising

Bruck an der Mur Weather History for the Previous 24 Hours

 ConditionsComfort  
Time TempWeatherWind HumidityBarometerVisibility
12:20 AM
Wed, Feb 10
48 °FPassing clouds.13 mph71%29.36 "HgN/A
11:50 PM
Tue, Feb 9
48 °FPassing clouds.14 mph71%29.39 "HgN/A
10:50 PM48 °FPartly cloudy.13 mph76%29.42 "HgN/A
10:20 PM48 °FPartly cloudy.12 mph76%29.45 "HgN/A
9:50 PM50 °FPartly cloudy.14 mph71%29.47 "HgN/A
9:20 PM50 °FPartly cloudy.16 mph71%29.47 "HgN/A
8:50 PM50 °FPartly cloudy.18 mph71%29.50 "HgN/A
8:20 PM50 °FPartly cloudy.16 mph67%29.50 "HgN/A
7:50 PM50 °FPartly cloudy.15 mph67%29.50 "HgN/A
7:20 PM50 °FPartly cloudy.14 mph67%29.53 "HgN/A
6:50 PM52 °FPartly cloudy.15 mph62%29.53 "HgN/A
6:20 PM52 °FPartly cloudy.13 mph62%29.56 "HgN/A
5:50 PM52 °FPartly cloudy.14 mph62%29.56 "HgN/A
4:50 PM54 °FBroken clouds.16 mph58%29.59 "HgN/A
4:20 PM54 °FBroken clouds.14 mph58%29.59 "HgN/A
3:50 PM55 °FBroken clouds.15 mph55%29.62 "HgN/A
3:20 PM55 °FBroken clouds.16 mph55%29.62 "HgN/A
2:50 PM57 °FPartly sunny.17 mph51%29.65 "HgN/A
2:20 PM57 °FPartly sunny.16 mph51%29.68 "HgN/A
1:50 PM59 °FPartly sunny.12 mph45%29.71 "HgN/A
1:20 PM57 °FPartly sunny.7 mph51%29.74 "HgN/A
12:50 PM54 °FBroken clouds.3 mph58%29.77 "HgN/A
12:20 PM50 °FBroken clouds.3 mph62%29.77 "HgN/A
11:20 AM50 °FPartly sunny.2 mph62%29.83 "HgN/A
10:50 AM48 °FPartly sunny.1 mph66%29.83 "HgN/A
10:20 AM46 °FPartly sunny.2 mph71%29.86 "HgN/A
9:50 AM45 °FPartly sunny.2 mph71%29.86 "HgN/A
8:50 AM41 °FScattered clouds.5 mph81%29.89 "HgN/A
8:20 AM36 °FScattered clouds.8 mph87%29.89 "HgN/A
7:50 AM34 °FScattered clouds.7 mph93%29.89 "HgN/A
6:50 AM34 °FClear.6 mph93%29.86 "Hg10 mi
6:20 AM34 °FClear.6 mph87%29.86 "Hg10 mi
5:50 AM32 °FClear.2 mph87%29.86 "Hg10 mi
5:20 AM36 °FChilly.5 mph87%29.86 "HgN/A
4:50 AM34 °FChilly.2 mph93%29.86 "HgN/A
4:20 AM34 °FPassing clouds.8 mph93%29.83 "HgN/A
3:50 AM36 °FChilly.6 mph87%29.83 "HgN/A
3:20 AM37 °FChilly.3 mph87%29.80 "HgN/A
2:50 AM37 °FChilly.5 mph87%29.80 "HgN/A
2:20 AM36 °FChilly.5 mph87%29.80 "HgN/A
Weather by CustomWeather, © 2016

See weather overviewHow to use our weather pages